CZ-6A DEB

Satellite information

Favourite Embed

Satellite Type and Status

DEBRISIN ORBIT

Key statistics

Satellite CZ-6A DEB at a glance.

Uptime

1129

Days in orbit

Revolutions

≈ 14.1

Per day

Orbit

SSO

Sun Synchronous Orbit

Inclination

98.9

Latest

Satellite identification and parameters

Extended collection of information and parameters for CZ-6A DEB.

Object identification

Identified? True

Debris? True

Object name: CZ-6A DEB

International designator: 2022-151TD

Object number (NORAD): 54964

Object ID (CCSDS): 54964

Country: PEOPLES REPUBLIC OF CHINA (PRC)

Current information (Y/N): Y

RCS size: SMALL

Orbital parameters

Period: 102.349 minutes

Inclination: 98.8622 deg

SMA: 7247.964 km

Apoapsis: 913.649 km

Periapsis: 826.008 km

RAAN: 341.3355 deg

Eccentricy: 0.0060459

Argument of periapsis: 169.6642 deg

Mean anomaly: 190.5786 deg

Mean motion: 14.06950274 rev/day

Mean motion (dot): 0.00000333 rev/day2

B* drag term: 0.00022174 1/REarth

Two-line elements (TLE)

Creation date: Dec. 12, 2025, 7:16 a.m.

Reference frame: TEME

Reference center: EARTH

Epoch: Dec. 11, 2025, 11:24 p.m. UTC

TLE line 0: 0 CZ-6A DEB

TLE line 1: 1 54964U 22151TD 25345.97566493 .00000333 00000-0 22174-3 0 9995

TLE line 2: 2 54964 98.8622 341.3355 0060459 169.6642 190.5786 14.06950274158061

Live tracking on map

Real-time ground track for satellite CZ-6A DEB.

In-orbit conjunctions

A list of the most updated potential collisions computed for object CZ-6A DEB.

Target Orbit TCA Probability of collision Miss distance Type
CZ-6A DEB LEO 2025-06-30 07:38:19 0.000254697 353.0 (m) DEBRIS
METEOR 2-5 DEB LEO 2025-04-17 12:43:21 0.0003528921 138.0 (m) DEBRIS

Associated space launch

Chinese satellite reported for atmospheric/ocean/environmental/spatial parameter research purposes, details TBD.

CZ-6A DEB was lifted into orbit during the mission ‘Long March 6A | Yunhai 3’, on board a Long March 6A space rocket.

The launch took place on Nov. 11, 2022, 10:52 p.m. from Launch Complex 9A.

For more information about the launch, click the button.

Launch to space Long March 6A | Yunhai 3
Long March 6A | Yunhai 3

Agency: N/A

Status: Launch Successful

Launch date: Nov. 11, 2022, 10:52 p.m. UTC

Rocket: Long March 6A

Launch pad: Launch Complex 9A

Location: Taiyuan Satellite Launch Center, People's Republic of China

...

Latest news about this satellite

There are no fresh news available about this satellite. Check back as we update our databases every day.


Newsletter sign-up

Weekly statistics, charts and insights to help you stay on top of the space industry.